Regional Weather Roundup
Issued by NWS

Home | Current Version | Previous Version | Text Only | Print | Product List | Glossary Off
Versions: 1 2 3 4 5 6 7 8 9 10 11 12 13 14 15 16 17 18 19 20 21 22 23 24 25 26 27 28 29 30 31 32 33 34 35 36 37 38 39 40 41 42 43 44 45 46 47 48 49 50

000
ASUS43 KLMK 290802
RWRKY
KENTUCKY REGIONAL WEATHER ROUNDUP
NATIONAL WEATHER SERVICE LOUISVILLE KY
400 AM EDT SUN MAR 29 2015

NOTE "FAIR" INDICATES FEW OR NO CLOUDS BELOW 12,000 FEET
WITH NO SIGNIFICANT WEATHER AND/OR OBSTRUCTIONS TO VISIBILITY.

KYZ001>023-026-027-061>063-070>075-290900-
WESTERN AND SOUTH CENTRAL KENTUCKY

CITY           SKY/WX    TMP DP  RH WIND       PRES   REMARKS
PADUCAH        CLEAR     31  20  63 SE7       30.30F WCI  24
HENDERSON      CLEAR     16  16 100 CALM      30.32F
OWENSBORO      CLEAR     28  23  81 SE5       30.34F WCI  23
HOPKINSVILLE   CLEAR     30  18  60 E3        30.32F
BOWLING GREEN  CLEAR     26  18  71 CALM      30.35F
GLASGOW        NOT AVBL
$$

KYZ024-025-028>034-038-045-046-053-290900-
NORTH CENTRAL KENTUCKY

CITY           SKY/WX    TMP DP  RH WIND       PRES   REMARKS
LOUISVILLE/SDF CLEAR     30  15  53 SE5       30.35F WCI  25
LOUISVILLE/LOU CLEAR     30  13  49 CALM      30.36S
FORT KNOX      CLEAR     26  16  68 CALM      30.32F
$$

KYZ035>037-039>044-047>052-055>060-089>105-290900-
NORTHEAST KENTUCKY

CITY           SKY/WX    TMP DP  RH WIND       PRES   REMARKS
LEXINGTON      CLEAR     25  13  60 SE7       30.34F WCI  17
COVINGTON      CLEAR     25  13  60 S3        30.34F
FRANKFORT      CLEAR     21  16  81 CALM      30.34F
$$

KYZ054-064>069-076>088-106>120-290900-
SOUTHEAST KENTUCKY

CITY           SKY/WX    TMP DP  RH WIND       PRES   REMARKS
JACKSON        CLEAR     25   9  50 CALM      30.34S
LONDON         CLEAR     25  15  66 CALM      30.34R
SOMERSET       NOT AVBL
MIDDLESBORO    CLEAR     23  20  87 CALM      30.36R
MONTICELLO     SUNNY     18  16  92 CALM      30.38S
$$




USA.gov is the U.S. government's official web portal to all federal, state and local government web resources and services.